Weather History for McGrath, AK

Change the Weather History Date:

Thursday, September 12, 2013

  Actual Average Record
Temperature  
Mean Temperature 41 °F 47 °F  
Max Temperature 51 °F 56 °F 71 °F (1979)
Min Temperature 31 °F 38 °F 28 °F (1959)
Degree Days  
Heating Degree Days 24 18  
Month to date heating degree days 191 195  
Since 1 July heating degree days 609 692  
Cooling Degree Days 0    
Month to date cooling degree days 0  
Year to date cooling degree days 78 16  
Moisture  
Dew Point 36 °F    
Average Humidity 0    
Maximum Humidity 0    
Minimum Humidity 0    
Precipitation  
Precipitation 0.01 in 0.08 in 1.01 in (1956)
Month to date precipitation 2.93 1.04  
Year to date precipitation 12.16 12.41  
Snow  
Snow 0.00 in 0.00 in 0.10 in (1987)
Month to date snowfall 0.0 0.1  
Since 1 July snowfall 0.0 0.1  
Since 1 September snowfall 0.0 0.1  
Snow Depth 0.00 in    
Sea Level Pressure  
Sea Level Pressure 29.86 in    
Wind  
Wind Speed 1 mph (WNW)    
Max Wind Speed 6 mph    
Max Gust Speed 7 mph    
Visibility 8 miles    
Events      
T = Trace of Precipitation, MM = Missing Value Source: NWS Daily Summary

Daily Weather History Graph

Daily Weather History Graph

Search for Another Location

Airport:

Trip Planner

Search our weather history database for the weather conditions in past years. The results will help you decide how hot, cold, wet, or windy it might be!

Date:

Astronomy

Sep. 12, 2013 Rise Set
Actual Time 7:40 AM AKDT 8:55 PM AKDT
Civil Twilight 6:52 AM AKDT 9:42 PM AKDT
Nautical Twilight 5:52 AM AKDT 10:41 PM AKDT
Astronomical Twilight 4:39 AM AKDT 11:53 PM AKDT
Moon 5:31 PM AKDT (9/12) 11:50 PM AKDT (9/12)
Length of Visible Light 14h 49m
Length of Day
13h 15m
First Quarter, 51% of the Moon is Illuminated
Sep 12
First Quarter
Sep 19
Full
Sep 26
Last Quarter
Oct 4
New
Oct 11
First Quarter

Hourly Weather History & Observations

Time (AKDT) Temp. Windchill Dew Point Humidity Pressure Visibility Wind Dir Wind Speed Gust Speed Precip Events Conditions
12:53 AM 37.0 °F - 35.1 °F 93% 29.88 in 10.0 mi Calm Calm - N/A   Clear
1:53 AM 36.0 °F - 34.0 °F 93% 29.88 in 10.0 mi Calm Calm - N/A   Clear
2:53 AM 33.1 °F - 30.9 °F 92% 29.89 in 10.0 mi Calm Calm - N/A   Clear
3:53 AM 33.1 °F - 30.9 °F 92% 29.89 in 10.0 mi Calm Calm - N/A   Clear
4:53 AM 32.0 °F - 30.0 °F 92% 29.89 in 10.0 mi Calm Calm - N/A   Scattered Clouds
5:48 AM 32.0 °F 28.7 °F 30.2 °F 93% 29.87 in 10.0 mi WNW 3.5 mph - N/A   Scattered Clouds
5:53 AM 32.0 °F - 30.0 °F 92% 29.89 in 10.0 mi Calm Calm - N/A   Scattered Clouds
6:48 AM 32.0 °F - 30.2 °F 93% 29.87 in 2.0 mi Calm Calm - N/A   Mostly Cloudy
6:51 AM 32.0 °F - 30.2 °F 93% 29.87 in 1.0 mi Calm Calm - N/A   Mostly Cloudy
6:53 AM 32.0 °F - 30.9 °F 96% 29.88 in 0.8 mi Calm Calm - N/A   Mostly Cloudy
7:19 AM 32.0 °F 28.7 °F 30.2 °F 93% 29.86 in 1.5 mi West 3.5 mph - N/A   Overcast
7:21 AM 32.0 °F 28.7 °F 30.2 °F 93% 29.86 in 3.0 mi West 3.5 mph - N/A   Overcast
7:38 AM 32.0 °F 28.7 °F 30.2 °F 93% 29.86 in 2.0 mi NW 3.5 mph - 0.00 in   Mostly Cloudy
7:46 AM 32.0 °F - 30.2 °F 93% 29.86 in 5.0 mi Calm Calm - 0.00 in   Mostly Cloudy
8:06 AM 32.0 °F 28.7 °F 30.2 °F 93% 29.87 in 10.0 mi West 3.5 mph - N/A   Mostly Cloudy
8:24 AM 32.0 °F - 30.2 °F 93% 29.86 in 10.0 mi Calm Calm - N/A   Mostly Cloudy
8:53 AM 32.0 °F - 30.9 °F 96% 29.88 in 10.0 mi Calm Calm - N/A   Mostly Cloudy
9:53 AM 35.1 °F - 33.1 °F 92% 29.87 in 10.0 mi Calm Calm - N/A   Mostly Cloudy
10:53 AM 37.0 °F 34.5 °F 35.1 °F 93% 29.87 in 10.0 mi NW 3.5 mph - N/A   Mostly Cloudy
11:53 AM 39.9 °F - 37.0 °F 89% 29.86 in 10.0 mi Calm Calm - N/A   Mostly Cloudy
12:53 PM 44.1 °F - 39.0 °F 82% 29.86 in 10.0 mi Calm Calm - N/A   Overcast
1:53 PM 46.0 °F 44.8 °F 39.0 °F 76% 29.87 in 10.0 mi WNW 3.5 mph - N/A   Overcast
2:53 PM 48.0 °F - 41.0 °F 77% 29.86 in 10.0 mi Calm Calm - 0.00 in   Overcast
3:53 PM 48.0 °F - 41.0 °F 77% 29.84 in 10.0 mi Calm Calm - 0.00 in   Overcast
4:53 PM 50.0 °F - 42.1 °F 74% 29.83 in 10.0 mi Calm Calm - N/A   Overcast
5:53 PM 50.0 °F - 43.0 °F 77% 29.81 in 10.0 mi NW 3.5 mph - N/A   Overcast
6:53 PM 50.0 °F - 44.1 °F 80% 29.81 in 10.0 mi WNW 3.5 mph - 0.00 in   Overcast
7:53 PM 50.0 °F - 45.0 °F 83% 29.81 in 10.0 mi Calm Calm - N/A   Overcast
8:53 PM 48.9 °F - 45.0 °F 86% 29.81 in 10.0 mi Calm Calm - N/A   Overcast
9:53 PM 48.0 °F - 44.1 °F 86% 29.81 in 10.0 mi NW 3.5 mph - 0.00 in   Overcast
10:53 PM 48.0 °F - 45.0 °F 89% 29.83 in 10.0 mi Calm Calm - 0.01 in   Overcast
11:53 PM 46.9 °F - 45.0 °F 93% 29.84 in 10.0 mi West 3.5 mph - N/A   Overcast